Weather History for Alpena, MI

Change the Weather History Date:

Wednesday, April 10, 2013

  Actual Average Record
Temperature  
Mean Temperature 33 °F 39 °F  
Max Temperature 40 °F 50 °F 81 °F (1945)
Min Temperature 26 °F 29 °F 7 °F (1923)
Degree Days  
Heating Degree Days 32 26  
Month to date heating degree days 323 276  
Since 1 July heating degree days 6774 7132  
Cooling Degree Days 0 0  
Month to date cooling degree days 0 0  
Year to date cooling degree days 0 0  
Moisture  
Dew Point 30 °F    
Average Humidity 80    
Maximum Humidity 96    
Minimum Humidity 64    
Precipitation  
Precipitation 0.24 in 0.09 in 1.26 in (2011)
Month to date precipitation 1.12 0.79  
Year to date precipitation 6.98 5.63  
Snow  
Snow 1.60 in 0.20 in 10.80 in (1992)
Month to date snowfall 1.6 2.8  
Since 1 July snowfall 47.1 81.1  
Snow Depth 1.00 in    
Sea Level Pressure  
Sea Level Pressure 30.11 in    
Wind  
Wind Speed 6 mph (NNE)    
Max Wind Speed 16 mph    
Max Gust Speed 21 mph    
Visibility 7 miles    
Events Rain , Snow    
T = Trace of Precipitation, MM = Missing Value Source: NWS Daily Summary

Daily Weather History Graph

Daily Weather History Graph

Search for Another Location

Airport:

Trip Planner

Search our weather history database for the weather conditions in past years. The results will help you decide how hot, cold, wet, or windy it might be!

Date:

Astronomy

Apr. 10, 2013 Rise Set
Actual Time 6:57 AM EDT 8:13 PM EDT
Civil Twilight 6:27 AM EDT 8:44 PM EDT
Nautical Twilight 5:51 AM EDT 9:20 PM EDT
Astronomical Twilight 5:12 AM EDT 9:59 PM EDT
Moon 6:52 AM EDT (4/10) 8:51 PM EDT (4/10)
Length of Visible Light 14h 16m
Length of Day
13h 15m
New Moon, 0% of the Moon is Illuminated
Apr 10
New Moon
Apr 18
First Quarter
Apr 25
Full
May 2
Last Quarter
May 9
New

Hourly Weather History & Observations

Time (EDT) Temp. Windchill Dew Point Humidity Pressure Visibility Wind Dir Wind Speed Gust Speed Precip Events Conditions
12:54 AM 34.0 °F 25.0 °F 32.0 °F 92% 30.12 in 10.0 mi NNW 12.7 mph - N/A   Overcast
1:54 AM 34.0 °F 28.0 °F 32.0 °F 92% 30.10 in 10.0 mi NNW 6.9 mph - N/A   Overcast
2:21 AM 33.8 °F 28.6 °F 32.0 °F 93% 30.08 in 10.0 mi NNW 5.8 mph - N/A   Overcast
2:34 AM 33.8 °F 28.6 °F 32.0 °F 93% 30.08 in 10.0 mi North 5.8 mph - N/A   Overcast
2:54 AM 34.0 °F 28.0 °F 32.0 °F 92% 30.08 in 10.0 mi North 6.9 mph - N/A   Overcast
3:54 AM 35.1 °F 28.6 °F 33.1 °F 92% 30.09 in 10.0 mi North 8.1 mph - N/A   Overcast
4:54 AM 35.1 °F 27.9 °F 33.1 °F 92% 30.13 in 10.0 mi North 9.2 mph - N/A   Overcast
5:33 AM 35.6 °F 29.2 °F 33.8 °F 93% 30.11 in 10.0 mi NNE 8.1 mph - N/A   Overcast
5:54 AM 35.1 °F 27.9 °F 32.0 °F 89% 30.13 in 9.0 mi NNE 9.2 mph - 0.00 in Snow Light Snow
6:11 AM 33.8 °F 27.0 °F 30.2 °F 87% 30.09 in 2.0 mi NE 8.1 mph - 0.03 in Snow Light Snow
6:21 AM 33.8 °F 27.7 °F 30.2 °F 87% 30.08 in 5.0 mi NE 6.9 mph - 0.05 in Rain Light Rain
6:35 AM 33.8 °F 29.6 °F 30.2 °F 87% 30.09 in 6.0 mi NE 4.6 mph - 0.08 in Rain Light Rain
6:54 AM 33.1 °F 27.7 °F 30.9 °F 92% 30.13 in 7.0 mi ENE 5.8 mph - 0.09 in Rain Light Rain
7:14 AM 33.8 °F 28.6 °F 30.2 °F 87% 30.10 in 2.5 mi NE 5.8 mph - 0.02 in Snow Light Snow
7:25 AM 33.8 °F 27.7 °F 30.2 °F 87% 30.10 in 2.0 mi NNE 6.9 mph - 0.03 in Snow Light Snow
7:30 AM 32.0 °F 24.8 °F 30.2 °F 93% 30.11 in 1.8 mi NNE 8.1 mph - 0.04 in Snow Light Snow
7:37 AM 32.0 °F 24.2 °F 30.2 °F 93% 30.10 in 1.5 mi NNE 9.2 mph - 0.05 in Snow Light Snow
7:54 AM 32.0 °F 23.6 °F 30.9 °F 96% 30.14 in 0.8 mi NNE 10.4 mph - 0.06 in Snow Light Snow
8:01 AM 32.0 °F 23.6 °F 30.2 °F 93% 30.10 in 0.8 mi NNE 10.4 mph - 0.01 in Snow Light Snow
8:07 AM 33.8 °F 26.4 °F 30.2 °F 87% 30.10 in 1.0 mi NNE 9.2 mph - 0.01 in Snow Light Snow
8:11 AM 33.8 °F 25.3 °F 30.2 °F 87% 30.10 in 1.2 mi NE 11.5 mph - 0.02 in Snow Light Snow
8:25 AM 33.8 °F 27.0 °F 30.2 °F 87% 30.10 in 2.5 mi NE 8.1 mph - 0.02 in Snow Light Snow
8:32 AM 33.8 °F 25.8 °F 30.2 °F 87% 30.09 in 4.0 mi NE 10.4 mph - 0.02 in Snow Light Snow
8:54 AM 33.1 °F 24.9 °F 30.9 °F 92% 30.11 in 10.0 mi NE 10.4 mph - 0.02 in   Overcast
9:29 AM 33.8 °F 25.3 °F 30.2 °F 87% 30.07 in 1.8 mi ENE 11.5 mph - 0.01 in Snow Light Snow
9:41 AM 33.8 °F 25.8 °F 30.2 °F 87% 30.08 in 0.8 mi ENE 10.4 mph - 0.02 in Snow Light Snow
9:54 AM 33.1 °F 27.7 °F 30.9 °F 92% 30.13 in 1.2 mi ENE 5.8 mph - 0.03 in Snow Light Snow
10:04 AM 33.8 °F 27.7 °F 30.2 °F 87% 30.10 in 2.0 mi ENE 6.9 mph - 0.00 in Snow Light Snow
10:13 AM 33.8 °F 29.6 °F 32.0 °F 93% 30.11 in 1.5 mi NE 4.6 mph - 0.01 in Snow Light Snow
10:28 AM 33.8 °F 29.6 °F 32.0 °F 93% 30.12 in 0.8 mi North 4.6 mph - 0.02 in Snow Light Snow
10:41 AM 33.8 °F - 30.2 °F 87% 30.13 in 1.2 mi Calm Calm - 0.03 in Snow Light Snow
10:52 AM 33.8 °F 28.6 °F 30.2 °F 87% 30.12 in 3.0 mi NNE 5.8 mph - 0.03 in Snow Light Snow
10:54 AM 33.1 °F 27.7 °F 30.9 °F 92% 30.14 in 3.0 mi NNE 5.8 mph - 0.04 in Snow Light Snow
11:54 AM 35.1 °F 26.9 °F 30.9 °F 85% 30.10 in 10.0 mi ENE 11.5 mph - 0.00 in   Overcast
12:02 PM 35.6 °F 27.1 °F 30.2 °F 81% 30.08 in 10.0 mi ENE 12.7 mph - N/A   Overcast
12:54 PM 35.1 °F 29.3 °F 30.9 °F 85% 30.13 in 10.0 mi ENE 6.9 mph - N/A   Overcast
1:54 PM 36.0 °F 28.5 °F 30.9 °F 82% 30.14 in 10.0 mi NNE 10.4 mph - N/A   Overcast
2:01 PM 35.6 °F 27.1 °F 30.2 °F 81% 30.12 in 10.0 mi North 12.7 mph - N/A   Overcast
2:19 PM 35.6 °F 27.5 °F 30.2 °F 81% 30.10 in 10.0 mi NNE 11.5 mph - N/A   Overcast
2:54 PM 36.0 °F 29.6 °F 30.9 °F 82% 30.13 in 10.0 mi ENE 8.1 mph - N/A   Overcast
3:54 PM 37.9 °F 30.9 °F 30.9 °F 76% 30.12 in 10.0 mi ENE 10.4 mph - N/A   Overcast
4:30 PM 37.4 °F 30.3 °F 30.2 °F 75% 30.10 in 10.0 mi NNE 10.4 mph - N/A   Overcast
4:54 PM 37.9 °F 31.5 °F 28.9 °F 70% 30.12 in 10.0 mi NNE 9.2 mph - N/A   Overcast
5:54 PM 39.9 °F 33.9 °F 30.0 °F 68% 30.08 in 10.0 mi North 9.2 mph - N/A   Clear
6:54 PM 39.9 °F - 28.0 °F 63% 30.12 in 10.0 mi Calm Calm - N/A   Clear
7:54 PM 37.9 °F 34.4 °F 27.0 °F 65% 30.09 in 10.0 mi NNE 4.6 mph - N/A   Overcast
8:54 PM 35.1 °F - 28.0 °F 76% 30.12 in 10.0 mi Calm Calm - N/A   Mostly Cloudy
9:54 PM 34.0 °F - 28.9 °F 82% 30.12 in 10.0 mi Calm Calm - N/A   Overcast
10:54 PM 30.9 °F - 27.0 °F 85% 30.10 in 10.0 mi Calm Calm - N/A   Clear
11:54 PM 30.0 °F - 27.0 °F 88% 30.14 in 10.0 mi Calm Calm - N/A   Clear